WetterOnline ( http://www.wetteronline.de )

Wetter aktuell Wahrenbrück

Aktuelles Wetter: Kirchhain (100m)

6-stündlich | Neueste Meldungen
Ortszeit Temperatur Wetter
Mi, 12.12. 13:00 3.2° C bedeckt
Mi, 12.12. 7:00 2.6° C bedeckt
Mi, 12.12. 1:00 3.0° C Sprühregen
Di, 11.12. 19:00 3.5° C leichter Regen
Di, 11.12. 13:00 4.3° C leichter Regen
Di, 11.12. 7:00 3.9° C leichter Regen
Di, 11.12. 1:00 3.9° C bewölkt
Mo, 10.12. 19:00 4.2° C bedeckt
Ortszeit Temperatur Wetter
Mi, 12.12. 15:10 2.5° C bewölkt
Mi, 12.12. 15:00 2.9° C bedeckt
Mi, 12.12. 14:50 2.9° C bedeckt
Mi, 12.12. 14:40 3.0° C bedeckt
Mi, 12.12. 14:30 3.2° C bedeckt
Mi, 12.12. 14:20 3.2° C bedeckt
Mi, 12.12. 14:00 3.3° C bedeckt
Mi, 12.12. 13:30 3.3° C bedeckt
Mi, 12.12. 13:00 3.2° C bedeckt
Mi, 12.12. 12:30 3.4° C bedeckt
Ortszeit Relative Feuchte Sichtweite
Mi, 12.12. 13:00 89% 16 km
Mi, 12.12. 7:00 96% 19 km
Mi, 12.12. 1:00 94% 35 km
Di, 11.12. 19:00 94% 13 km
Di, 11.12. 13:00 86% 40 km
Di, 11.12. 7:00 87% 7 km
Di, 11.12. 1:00 88% 40 km
Mo, 10.12. 19:00 77% 60 km
Ortszeit Relative Feuchte Sichtweite
Mi, 12.12. 15:10 88% -
Mi, 12.12. 15:00 86% 15 km
Mi, 12.12. 14:50 86% -
Mi, 12.12. 14:40 87% -
Mi, 12.12. 14:30 87% 13 km
Mi, 12.12. 14:20 87% -
Mi, 12.12. 14:00 89% 14 km
Mi, 12.12. 13:30 89% 13 km
Mi, 12.12. 13:00 89% 16 km
Mi, 12.12. 12:30 85% 19 km
Ortszeit Niederschlagsmenge Niederschlagsart
Mi, 12.12. 13:00 0.1 l/m2 in 6 Std. Regen
Mi, 12.12. 7:00 0.8 l/m2 in 12 Std. Regen
Mi, 12.12. 1:00 0.7 l/m2 in 6 Std. Regen
Di, 11.12. 19:00 3 l/m2 in 12 Std. Schnee, Regen
Di, 11.12. 13:00 1 l/m2 in 6 Std. Regen
Di, 11.12. 7:00 0.7 l/m2 in 12 Std. Regen
Di, 11.12. 1:00 0.3 l/m2 in 6 Std. Regen
Mo, 10.12. 19:00 0.1 l/m2 in 12 Std. Regen
Ortszeit Niederschlagsmenge Niederschlagsart
Mi, 12.12. 15:10 keine Meldung -
Mi, 12.12. 15:00 0.0 l/m2 in 1 Std. -
Mi, 12.12. 14:50 keine Meldung -
Mi, 12.12. 14:40 keine Meldung -
Mi, 12.12. 14:30 0.0 l/m2 in 1 Std. -
Mi, 12.12. 14:20 keine Meldung -
Mi, 12.12. 14:00 0.0 l/m2 in 1 Std. -
Mi, 12.12. 13:30 0.0 l/m2 in 1 Std. -
Mi, 12.12. 13:00 0.0 l/m2 in 1 Std. Regen
Mi, 12.12. 12:30 0.0 l/m2 in 1 Std. -
Ortszeit Stärke Spitze Richtung
km/h Bft. km/h Grad Sektor
Mi, 12.12. 13:00 13 3 22 360° N
Mi, 12.12. 7:00 13 3 30 330° NW
Mi, 12.12. 1:00 17 3 31 320° NW
Di, 11.12. 19:00 19 3 35 310° NW
Di, 11.12. 13:00 28 4 50 310° NW
Di, 11.12. 7:00 31 5 52 290° W
Di, 11.12. 1:00 29 5 58 290° W
Mo, 10.12. 19:00 28 4 57 270° W
Ortszeit Stärke Spitze Richtung
km/h Bft. km/h Grad Sektor
Mi, 12.12. 15:10 9 2 - 20° N
Mi, 12.12. 15:00 11 2 17 20° N
Mi, 12.12. 14:50 11 2 - 20° N
Mi, 12.12. 14:40 11 2 - 10° N
Mi, 12.12. 14:30 11 2 17 10° N
Mi, 12.12. 14:20 11 2 - 10° N
Mi, 12.12. 14:00 13 3 19 360° N
Mi, 12.12. 13:30 11 2 18 360° N
Mi, 12.12. 13:00 13 3 17 360° N
Mi, 12.12. 12:30 9 2 15 20° N
Ortszeit Untergrenze Bedeckung Gattung
total tief tief mittel hoch
Mi, 12.12. 13:00 270 m 8/8 8/8 - - -
Mi, 12.12. 7:00 210 m 8/8 8/8 - - -
Mi, 12.12. 1:00 300 m 7/8 7/8 - - -
Di, 11.12. 19:00 240 m 8/8 8/8 - - -
Di, 11.12. 13:00 510 m 7/8 7/8 - - -
Di, 11.12. 7:00 540 m 8/8 8/8 - - -
Di, 11.12. 1:00 480 m 7/8 7/8 - - -
Mo, 10.12. 19:00 660 m 8/8 8/8 - - -
Ortszeit Bedeckungsgrad in Achtel und Wolkenuntergrenze
Mi, 12.12. 15:10 2(1020m) 7(2700m) 8(3000m)
Mi, 12.12. 15:00 8(1020m) 8(2700m) 8(3300m)
Mi, 12.12. 14:50 8(1020m) 8(2700m) 8(3300m)
Mi, 12.12. 14:40 1(360m) 8(1050m) 8(2700m)
Mi, 12.12. 14:30 5(360m) 8(1050m)
Mi, 12.12. 14:20 5(360m) 8(1050m)
Mi, 12.12. 14:00 4(300m) 7(540m) 8(1050m)
Mi, 12.12. 13:30 8(1020m) 3(420m) 8(1020m)
Mi, 12.12. 13:00 1(270m) 8(1020m)
Mi, 12.12. 12:30 5(360m) 6(750m) 8(1080m)
Ortszeit Luftdruck NN (hPa) Tendenz (hPa in 3 Std.)
Mi, 12.12. 13:00 1024 + 0,7
Mi, 12.12. 7:00 1022 + 1,2
Mi, 12.12. 1:00 1020 + 1,2
Di, 11.12. 19:00 1017 + 1,1
Di, 11.12. 13:00 1015 + 1,4
Di, 11.12. 7:00 1011 - 0,3
Di, 11.12. 1:00 1012 0,0
Mo, 10.12. 19:00 1012 0,0
Ortszeit Luftdruck NN (hPa) Tendenz (hPa in 3 Std.)
Mi, 12.12. 15:10 1024 keine Meldung
Mi, 12.12. 15:00 1024 + 0,1
Mi, 12.12. 14:50 1024 keine Meldung
Mi, 12.12. 14:40 1024 keine Meldung
Mi, 12.12. 14:30 1024 0,0
Mi, 12.12. 14:20 1024 keine Meldung
Mi, 12.12. 14:00 1024 + 0,2
Mi, 12.12. 13:30 1024 + 0,4
Mi, 12.12. 13:00 1024 + 0,7
Mi, 12.12. 12:30 1024 + 0,9
Ortszeit Schneehöhe (cm)
Mi, 12.12. 13:00 0
Mi, 12.12. 7:00 0
Mi, 12.12. 1:00 0
Di, 11.12. 19:00 0
Di, 11.12. 13:00 0
Di, 11.12. 7:00 0
Di, 11.12. 1:00 0
Mo, 10.12. 19:00 0
Ortszeit Schneehöhe (cm)
Mi, 12.12. 15:10 0
Mi, 12.12. 15:00 0
Mi, 12.12. 14:50 0
Mi, 12.12. 14:40 0
Mi, 12.12. 14:30 0
Mi, 12.12. 14:20 0
Mi, 12.12. 14:00 0
Mi, 12.12. 13:30 0
Mi, 12.12. 13:00 0
Mi, 12.12. 12:30 0
Link zu dieser Seite / Seite empfehlen

Das Wetter in ...